JZA261 CYXU-CYYZ

Flight info

Callsign JZA261
Flight time 0h 31m
Altitude 15000
Route NUBER NAKBO6
Aircraft DH8D/M-SDE2E3FGRY/H

Departure

Time 2026-05-04 23:33
Airport London International Airport (CYXU)

Arrival

Time 2026-05-05 00:04
Airport Toronto Pearson International Airport (CYYZ)
Time Latitude Longitude Altitude Speed Heading
2026-05-04 23:09 43.02825 -81.14766 908 ft 0 kts 257°
2026-05-04 23:24 43.02825 -81.14767 908 ft 0 kts 256°
2026-05-04 23:24 43.02825 -81.14766 908 ft 0 kts 256°
2026-05-04 23:25 43.02827 -81.14755 908 ft 2 kts 257°
2026-05-04 23:25 43.02831 -81.14735 908 ft 2 kts 258°
2026-05-04 23:26 43.02834 -81.14716 908 ft 2 kts 258°
2026-05-04 23:26 43.02838 -81.14696 908 ft 2 kts 259°
2026-05-04 23:26 43.02839 -81.14675 908 ft 2 kts 278°
2026-05-04 23:26 43.02837 -81.14664 908 ft 0 kts 284°
2026-05-04 23:28 43.02837 -81.14665 908 ft 0 kts 285°
2026-05-04 23:29 43.02873 -81.14700 908 ft 12 kts 328°
2026-05-04 23:29 43.02942 -81.14777 908 ft 14 kts 319°
2026-05-04 23:29 43.03027 -81.14878 908 ft 17 kts 318°
2026-05-04 23:29 43.03133 -81.15008 909 ft 23 kts 317°
2026-05-04 23:30 43.03256 -81.15153 910 ft 22 kts 317°
2026-05-04 23:30 43.03365 -81.15286 911 ft 22 kts 319°
2026-05-04 23:30 43.03496 -81.15442 913 ft 25 kts 319°
2026-05-04 23:30 43.03622 -81.15593 914 ft 22 kts 318°
2026-05-04 23:31 43.03742 -81.15739 914 ft 24 kts 318°
2026-05-04 23:31 43.03861 -81.15884 914 ft 22 kts 317°
2026-05-04 23:31 43.03970 -81.16002 913 ft 13 kts 340°
2026-05-04 23:31 43.04025 -81.16009 913 ft 0 kts
2026-05-04 23:32 43.04050 -81.16009 913 ft 9 kts
2026-05-04 23:32 43.04128 -81.15960 914 ft 16 kts 64°
2026-05-04 23:32 43.04072 -81.15814 915 ft 26 kts 139°
2026-05-04 23:32 43.03763 -81.15443 915 ft 101 kts 140°
2026-05-04 23:33 43.03096 -81.14607 993 ft 148 kts 144°
2026-05-04 23:33 43.02333 -81.13573 1354 ft 167 kts 143°
2026-05-04 23:33 43.01490 -81.12294 1657 ft 191 kts 140°
2026-05-04 23:33 43.00599 -81.10908 2156 ft 200 kts 140°
2026-05-04 23:34 42.99682 -81.09432 2689 ft 206 kts 139°
2026-05-04 23:34 42.98725 -81.07955 3229 ft 211 kts 139°
2026-05-04 23:34 42.97733 -81.06446 3695 ft 221 kts 139°
2026-05-04 23:34 42.96880 -81.04585 3889 ft 251 kts 115°
2026-05-04 23:35 42.96685 -81.02079 3989 ft 280 kts 90°
2026-05-04 23:35 42.96770 -80.99423 3978 ft 276 kts 91°
2026-05-04 23:35 42.97298 -80.96923 3987 ft 280 kts 63°
2026-05-04 23:35 42.98541 -80.94837 3999 ft 282 kts 46°
2026-05-04 23:36 42.99924 -80.92950 3985 ft 283 kts 45°
2026-05-04 23:36 43.01317 -80.91052 3999 ft 284 kts 45°
2026-05-04 23:36 43.02711 -80.89159 3990 ft 284 kts 45°
2026-05-04 23:36 43.04116 -80.87251 3996 ft 283 kts 45°
2026-05-04 23:37 43.05489 -80.85399 3979 ft 269 kts 45°
2026-05-04 23:37 43.06782 -80.83656 3971 ft 255 kts 44°
2026-05-04 23:37 43.08003 -80.82003 3966 ft 241 kts 45°
2026-05-04 23:37 43.09169 -80.80421 3962 ft 227 kts 45°
2026-05-04 23:38 43.10247 -80.78956 3960 ft 213 kts 45°
2026-05-04 23:38 43.11266 -80.77568 3952 ft 198 kts 45°
2026-05-04 23:38 43.12216 -80.76300 3942 ft 186 kts 39°
2026-05-04 23:38 43.13239 -80.75230 4157 ft 180 kts 34°
2026-05-04 23:39 43.14182 -80.74287 4591 ft 158 kts 34°
2026-05-04 23:39 43.15120 -80.73308 4892 ft 173 kts 36°
2026-05-04 23:39 43.16025 -80.72333 5363 ft 166 kts 35°
2026-05-04 23:39 43.16925 -80.71350 5707 ft 166 kts 35°
2026-05-04 23:40 43.17837 -80.70332 6094 ft 173 kts 35°
2026-05-04 23:40 43.18810 -80.69234 6504 ft 196 kts 35°
2026-05-04 23:40 43.19939 -80.67964 6841 ft 222 kts 35°
2026-05-04 23:40 43.21174 -80.66559 7132 ft 242 kts 36°
2026-05-04 23:41 43.22536 -80.64995 7431 ft 268 kts 36°
2026-05-04 23:41 43.24018 -80.63284 7718 ft 290 kts 37°
2026-05-04 23:41 43.25487 -80.61244 7904 ft 315 kts 52°
2026-05-04 23:41 43.26557 -80.58501 7985 ft 338 kts 64°
2026-05-04 23:42 43.27547 -80.55572 7975 ft 335 kts 64°
2026-05-04 23:42 43.28513 -80.52705 7977 ft 331 kts 64°
2026-05-04 23:42 43.29462 -80.49882 7973 ft 321 kts 64°
2026-05-04 23:42 43.30360 -80.47206 7964 ft 292 kts 65°
2026-05-04 23:43 43.31134 -80.44778 7961 ft 266 kts 65°
2026-05-04 23:43 43.31842 -80.42547 7958 ft 247 kts 65°
2026-05-04 23:43 43.32503 -80.40456 7945 ft 229 kts 65°
2026-05-04 23:43 43.33120 -80.38509 7986 ft 224 kts 66°
2026-05-04 23:44 43.33751 -80.36498 8000 ft 232 kts 66°
2026-05-04 23:44 43.34392 -80.34465 7996 ft 239 kts 66°
2026-05-04 23:44 43.35077 -80.32305 7998 ft 246 kts 66°
2026-05-04 23:44 43.35768 -80.30134 7994 ft 252 kts 66°
2026-05-04 23:45 43.36485 -80.27883 7994 ft 258 kts 66°
2026-05-04 23:45 43.37209 -80.25608 8008 ft 264 kts 66°
2026-05-04 23:45 43.37953 -80.23274 8027 ft 270 kts 66°
2026-05-04 23:45 43.38711 -80.20895 8025 ft 276 kts 66°
2026-05-04 23:46 43.39463 -80.18542 7990 ft 262 kts 66°
2026-05-04 23:46 43.40178 -80.16315 7960 ft 249 kts 66°
2026-05-04 23:46 43.40877 -80.14114 8015 ft 250 kts 66°
2026-05-04 23:46 43.41571 -80.11921 8001 ft 252 kts 66°
2026-05-04 23:47 43.42270 -80.09717 8013 ft 254 kts 66°
2026-05-04 23:47 43.42973 -80.07500 8001 ft 255 kts 66°
2026-05-04 23:47 43.43686 -80.05248 8004 ft 257 kts 66°
2026-05-04 23:47 43.44405 -80.02978 7997 ft 258 kts 66°
2026-05-04 23:48 43.45118 -80.00722 7991 ft 260 kts 66°
2026-05-04 23:48 43.45835 -79.98453 7990 ft 260 kts 66°
2026-05-04 23:48 43.46563 -79.96149 7974 ft 261 kts 66°
2026-05-04 23:48 43.47285 -79.93860 7992 ft 262 kts 66°
2026-05-04 23:49 43.48006 -79.91575 7998 ft 263 kts 66°
2026-05-04 23:49 43.48737 -79.89253 7980 ft 265 kts 66°
2026-05-04 23:49 43.49479 -79.86900 7990 ft 265 kts 66°
2026-05-04 23:49 43.50209 -79.84577 8000 ft 265 kts 66°
2026-05-04 23:50 43.50939 -79.82256 7985 ft 266 kts 66°
2026-05-04 23:50 43.51676 -79.79906 8005 ft 266 kts 66°
2026-05-04 23:50 43.52403 -79.77588 7994 ft 267 kts 66°
2026-05-04 23:50 43.53147 -79.75215 7994 ft 267 kts 66°
2026-05-04 23:51 43.53880 -79.72875 7995 ft 267 kts 66°
2026-05-04 23:51 43.54619 -79.70514 7991 ft 268 kts 66°
2026-05-04 23:51 43.55350 -79.68173 7993 ft 267 kts 66°
2026-05-04 23:51 43.56089 -79.65807 8014 ft 267 kts 66°
2026-05-04 23:52 43.56823 -79.63454 7983 ft 269 kts 66°
2026-05-04 23:52 43.57573 -79.61047 7791 ft 279 kts 66°
2026-05-04 23:52 43.58339 -79.58592 7565 ft 275 kts 66°
2026-05-04 23:52 43.59077 -79.56242 7312 ft 261 kts 67°
2026-05-04 23:53 43.59884 -79.54087 7047 ft 248 kts 52°
2026-05-04 23:53 43.61005 -79.52336 6786 ft 235 kts 44°
2026-05-04 23:53 43.62101 -79.50761 6518 ft 222 kts 44°
2026-05-04 23:53 43.63136 -79.49274 6244 ft 209 kts 44°
2026-05-04 23:54 43.64118 -79.47862 5957 ft 196 kts 44°
2026-05-04 23:54 43.65039 -79.46531 5680 ft 189 kts 44°
2026-05-04 23:54 43.65936 -79.45229 5407 ft 186 kts 45°
2026-05-04 23:54 43.66827 -79.43929 5159 ft 187 kts 45°
2026-05-04 23:55 43.67721 -79.42626 4902 ft 187 kts 45°
2026-05-04 23:55 43.68623 -79.41308 4663 ft 191 kts 45°
2026-05-04 23:55 43.70528 -79.38515 4232 ft 208 kts 46°
2026-05-04 23:56 43.71527 -79.37054 4101 ft 211 kts 46°
2026-05-04 23:56 43.72533 -79.35585 3996 ft 213 kts 45°
2026-05-04 23:56 43.73780 -79.34451 3762 ft 214 kts 11°
2026-05-04 23:56 43.75196 -79.34428 3521 ft 203 kts 334°
2026-05-04 23:57 43.76436 -79.35317 3294 ft 201 kts 319°
2026-05-04 23:57 43.77631 -79.36320 3117 ft 205 kts 320°
2026-05-04 23:57 43.78805 -79.37291 3020 ft 188 kts 320°
2026-05-04 23:57 43.79893 -79.38155 2979 ft 170 kts 319°
2026-05-04 23:58 43.80898 -79.38921 2993 ft 169 kts 321°
2026-05-04 23:58 43.81842 -79.39935 2993 ft 169 kts 290°
2026-05-04 23:58 43.81905 -79.41426 3003 ft 158 kts 239°
2026-05-04 23:58 43.81060 -79.42413 3012 ft 170 kts 204°
2026-05-04 23:59 43.79886 -79.42899 3007 ft 176 kts 200°
2026-05-04 23:59 43.78830 -79.43633 2995 ft 167 kts 227°
2026-05-04 23:59 43.78153 -79.44871 2998 ft 157 kts 228°
2026-05-04 23:59 43.77388 -79.45905 2991 ft 148 kts 224°
2026-05-05 00:00 43.76711 -79.46884 2973 ft 131 kts 227°
2026-05-05 00:00 43.76318 -79.47470 2942 ft 122 kts 226°
2026-05-05 00:00 43.75556 -79.48579 2696 ft 116 kts 226°
2026-05-05 00:00 43.75017 -79.49369 2572 ft 110 kts 226°
2026-05-05 00:01 43.74504 -79.50120 2405 ft 106 kts 226°
2026-05-05 00:01 43.73997 -79.50865 2280 ft 107 kts 227°
2026-05-05 00:01 43.73473 -79.51639 2161 ft 111 kts 226°
2026-05-05 00:01 43.72935 -79.52425 2024 ft 117 kts 225°
2026-05-05 00:02 43.72413 -79.53184 1883 ft 122 kts 225°
2026-05-05 00:02 43.71809 -79.54057 1650 ft 114 kts 224°
2026-05-05 00:02 43.71276 -79.54828 1525 ft 108 kts 225°
2026-05-05 00:02 43.70739 -79.55598 1349 ft 116 kts 224°
2026-05-05 00:03 43.70159 -79.56422 1212 ft 120 kts 226°
2026-05-05 00:03 43.69595 -79.57258 1066 ft 119 kts 225°
2026-05-05 00:03 43.69028 -79.58076 886 ft 118 kts 225°
2026-05-05 00:03 43.68477 -79.58882 738 ft 114 kts 225°
2026-05-05 00:04 43.67914 -79.59706 588 ft 116 kts 226°
2026-05-05 00:04 43.67428 -79.60410 552 ft 73 kts 227°
2026-05-05 00:04 43.67176 -79.60782 553 ft 41 kts 227°
2026-05-05 00:04 43.67072 -79.60987 554 ft 14 kts 292°
2026-05-05 00:05 43.67137 -79.61083 556 ft 13 kts 315°
2026-05-05 00:05 43.67157 -79.61107 556 ft 1 kts 325°
2026-05-05 00:05 43.67196 -79.61086 557 ft 11 kts 42°
2026-05-05 00:05 43.67304 -79.60931 557 ft 26 kts 47°
2026-05-05 00:06 43.67427 -79.60752 558 ft 24 kts 47°
2026-05-05 00:06 43.67544 -79.60578 556 ft 25 kts 45°
2026-05-05 00:06 43.67660 -79.60413 556 ft 24 kts 46°
2026-05-05 00:06 43.67762 -79.60310 556 ft 14 kts 340°
2026-05-05 00:07 43.67828 -79.60389 559 ft 11 kts 316°
2026-05-05 00:07 43.67833 -79.60483 560 ft 11 kts 230°
2026-05-05 00:07 43.67795 -79.60557 560 ft 6 kts 284°
2026-05-05 00:07 43.67827 -79.60605 561 ft 5 kts 317°
2026-05-05 00:08 43.67831 -79.60610 561 ft 0 kts 316°